| time (UTC) | temp F | wind direction | speed MPH | gust MPH | rain 1hr in | rain 24hr in | rain mn in | humidity % | barometer mb |
| 20260508135526 | 62 | 143 | 0.0 | 3.0 | 0.03 | 0.68 | 0.68 | 91 | 1014.6 |
| 20260508135021 | 62 | 136 | 0.0 | 3.0 | 0.03 | 0.68 | 0.68 | 91 | 1014.7 |
| 20260508134542 | 61 | 0 | 0.0 | 2.0 | 0.04 | 0.68 | 0.68 | 91 | 1014.9 |
| 20260508134022 | 61 | 140 | 0.0 | 2.0 | 0.04 | 0.68 | 0.68 | 92 | 1014.6 |
| 20260508133526 | 60 | 142 | 0.0 | 4.0 | 0.04 | 0.68 | 0.68 | 93 | 1014.6 |
| 20260508133039 | 60 | 150 | 0.0 | 4.0 | 0.04 | 0.68 | 0.68 | 93 | 1014.6 |
| 20260508132522 | 60 | 163 | 1.0 | 6.0 | 0.04 | 0.68 | 0.68 | 93 | 1014.7 |
| 20260508132021 | 60 | 0 | 0.0 | 6.0 | 0.04 | 0.68 | 0.68 | 92 | 1014.7 |
| 20260508131541 | 60 | 220 | 1.0 | 4.0 | 0.04 | 0.68 | 0.68 | 93 | 1014.5 |
| 20260508131022 | 60 | 165 | 1.0 | 4.0 | 0.04 | 0.68 | 0.68 | 93 | 1014.6 |
| 20260508130521 | 60 | 147 | 0.0 | 3.0 | 0.03 | 0.67 | 0.67 | 92 | 1014.7 |
| 20260508130036 | 60 | 150 | 1.0 | 3.0 | 0.02 | 0.66 | 0.66 | 93 | 1014.6 |
| 20260508125523 | 60 | 0 | 0.0 | 1.0 | 0.01 | 0.65 | 0.65 | 93 | 1015.2 |
| 20260508125023 | 60 | 0 | 0.0 | 2.0 | 0.01 | 0.65 | 0.65 | 93 | 1015.2 |
| 20260508124538 | 60 | 0 | 0.0 | 2.0 | 0.00 | 0.64 | 0.64 | 93 | 1014.9 |
| 20260508124022 | 60 | 138 | 0.0 | 1.0 | 0.00 | 0.64 | 0.64 | 93 | 1015.0 |
| 20260508123523 | 60 | 0 | 0.0 | 1.0 | 0.00 | 0.64 | 0.64 | 93 | 1015.2 |
| 20260508123038 | 60 | 0 | 0.0 | 1.0 | 0.00 | 0.64 | 0.64 | 92 | 1015.0 |
| 20260508122521 | 60 | 0 | 0.0 | 1.0 | 0.00 | 0.64 | 0.64 | 92 | 1014.9 |
| 20260508122022 | 60 | 0 | 0.0 | 1.0 | 0.00 | 0.64 | 0.64 | 93 | 1015.0 |
| 20260508121542 | 60 | 0 | 0.0 | 2.0 | 0.04 | 0.64 | 0.64 | 92 | 1015.1 |
| 20260508121023 | 60 | 0 | 0.0 | 4.0 | 0.12 | 0.64 | 0.64 | 92 | 1015.2 |
| 20260508120521 | 60 | 0 | 0.0 | 5.0 | 0.15 | 0.64 | 0.64 | 92 | 1014.8 |
| 20260508120042 | 60 | 0 | 2.0 | 5.0 | 0.18 | 0.64 | 0.64 | 92 | 1014.7 |
| 20260508115522 | 60 | 162 | 1.0 | 5.0 | 0.20 | 0.64 | 0.64 | 93 | 1014.8 |
| 20260508115021 | 60 | 136 | 0.0 | 5.0 | 0.21 | 0.64 | 0.64 | 92 | 1015.0 |
| 20260508114541 | 60 | 167 | 1.0 | 5.0 | 0.21 | 0.64 | 0.64 | 92 | 1014.7 |
| 20260508114022 | 60 | 171 | 1.0 | 4.0 | 0.21 | 0.64 | 0.64 | 92 | 1014.7 |
| 20260508113521 | 60 | 151 | 1.0 | 4.0 | 0.22 | 0.64 | 0.64 | 92 | 1014.8 |
| 20260508113041 | 60 | 153 | 1.0 | 4.0 | 0.22 | 0.64 | 0.64 | 92 | 1014.5 |
| 20260508112521 | 60 | 0 | 0.0 | 3.0 | 0.22 | 0.64 | 0.64 | 92 | 1014.8 |
| 20260508112023 | 60 | 196 | 1.0 | 3.0 | 0.24 | 0.64 | 0.64 | 92 | 1014.6 |
| 20260508111554 | 60 | 132 | 0.0 | 2.0 | 0.22 | 0.58 | 0.58 | 92 | 1014.5 |
| 20260508111021 | 60 | 171 | 0.0 | 2.0 | 0.14 | 0.51 | 0.51 | 92 | 1014.6 |
| 20260508110521 | 61 | 155 | 0.0 | 2.0 | 0.13 | 0.49 | 0.49 | 92 | 1014.7 |
| 20260508110038 | 60 | 0 | 0.0 | 2.0 | 0.10 | 0.46 | 0.46 | 92 | 1015.0 |
| 20260508105523 | 60 | 148 | 0.0 | 3.0 | 0.08 | 0.44 | 0.44 | 92 | 1015.3 |
| 20260508105020 | 60 | 323 | 1.0 | 3.0 | 0.07 | 0.43 | 0.43 | 92 | 1015.5 |
| 20260508104538 | 60 | 0 | 0.0 | 2.0 | 0.07 | 0.43 | 0.43 | 92 | 1015.0 |
| 20260508104022 | 60 | 0 | 0.0 | 4.0 | 0.07 | 0.43 | 0.43 | 92 | 1014.8 |
| 20260508103521 | 60 | 315 | 2.0 | 4.0 | 0.06 | 0.42 | 0.42 | 92 | 1015.4 |
| 20260508103038 | 60 | 338 | 1.0 | 4.0 | 0.06 | 0.42 | 0.42 | 92 | 1014.9 |
| 20260508102521 | 60 | 22 | 1.0 | 3.0 | 0.06 | 0.42 | 0.42 | 92 | 1014.4 |
| 20260508102022 | 60 | 0 | 1.0 | 3.0 | 0.03 | 0.39 | 0.39 | 92 | 1014.6 |
| 20260508101536 | 60 | 231 | 0.0 | 4.0 | 0.01 | 0.37 | 0.37 | 91 | 1014.7 |
| 20260508101020 | 60 | 0 | 0.0 | 4.0 | 0.01 | 0.37 | 0.37 | 91 | 1014.1 |
| 20260508100521 | 60 | 0 | 0.0 | 3.0 | 0.00 | 0.36 | 0.36 | 91 | 1013.9 |
| 20260508100035 | 60 | 0 | 0.0 | 4.0 | 0.00 | 0.36 | 0.36 | 91 | 1013.8 |
| 20260508095521 | 60 | 167 | 0.0 | 4.0 | 0.00 | 0.36 | 0.36 | 91 | 1013.8 |
| 20260508095022 | 60 | 0 | 0.0 | 1.0 | 0.00 | 0.36 | 0.36 | 91 | 1013.9 |
| 20260508094540 | 60 | 0 | 0.0 | 1.0 | 0.00 | 0.36 | 0.36 | 91 | 1014.0 |
| 20260508094022 | 60 | 0 | 0.0 | 1.0 | 0.00 | 0.36 | 0.36 | 91 | 1014.0 |
| 20260508093522 | 60 | 163 | 0.0 | 1.0 | 0.00 | 0.36 | 0.36 | 91 | 1014.1 |
| 20260508093038 | 60 | 0 | 0.0 | 1.0 | 0.00 | 0.36 | 0.36 | 91 | 1014.2 |
| 20260508092519 | 60 | 0 | 0.0 | 1.0 | 0.01 | 0.36 | 0.36 | 91 | 1014.2 |
| 20260508092019 | 60 | 0 | 0.0 | 3.0 | 0.01 | 0.36 | 0.36 | 91 | 1014.1 |
| 20260508091544 | 60 | 0 | 0.0 | 3.0 | 0.01 | 0.36 | 0.36 | 91 | 1014.1 |
| 20260508091018 | 60 | 0 | 1.0 | 2.0 | 0.01 | 0.36 | 0.36 | 91 | 1014.2 |
| 20260508090520 | 60 | 219 | 0.0 | 2.0 | 0.02 | 0.36 | 0.36 | 90 | 1014.3 |
| 20260508090042 | 60 | 298 | 0.0 | 1.0 | 0.12 | 0.36 | 0.36 | 90 | 1014.4 |
| 20260508085520 | 60 | 0 | 0.0 | 1.0 | 0.36 | 0.36 | 0.36 | 90 | 1014.5 |
| 20260508085019 | 59 | 0 | 0.0 | 3.0 | 0.36 | 0.36 | 0.36 | 90 | 1014.6 |
| 20260508084539 | 59 | 0 | 0.0 | 3.0 | 0.36 | 0.36 | 0.36 | 90 | 1014.8 |
| 20260508084024 | 59 | 307 | 1.0 | 4.0 | 0.36 | 0.36 | 0.36 | 89 | 1014.9 |
| 20260508083520 | 59 | 312 | 0.0 | 5.0 | 0.36 | 0.36 | 0.36 | 89 | 1014.4 |
| 20260508083048 | 59 | 148 | 2.0 | 5.0 | 0.36 | 0.36 | 0.36 | 89 | 1013.9 |
| 20260508082523 | 59 | 164 | 1.0 | 4.0 | 0.35 | 0.35 | 0.35 | 88 | 1014.5 |
| 20260508082019 | 59 | 166 | 1.0 | 3.0 | 0.35 | 0.35 | 0.35 | 87 | 1014.6 |
| 20260508081546 | 58 | 196 | 1.0 | 2.0 | 0.35 | 0.35 | 0.35 | 84 | 1015.1 |
| 20260508081022 | 59 | 140 | 0.0 | 6.0 | 0.35 | 0.35 | 0.35 | 84 | 1014.9 |
| 20260508080523 | 60 | 0 | 1.0 | 10.0 | 0.34 | 0.34 | 0.34 | 81 | 1015.2 |
| 20260508080038 | 62 | 159 | 4.0 | 10.0 | 0.22 | 0.22 | 0.22 | 80 | 1015.1 |
| 20260508075522 | 62 | 0 | 0.0 | 2.0 | 0.00 | 0.00 | 0.00 | 79 | 1016.0 |
| 20260508075021 | 62 | 0 | 0.0 | 2.0 | 0.00 | 0.00 | 0.00 | 77 | 1016.3 |
| 20260508074541 | 63 | 268 | 0.0 | 2.0 | 0.00 | 0.00 | 0.00 | 77 | 1015.9 |
| 20260508074021 | 63 | 0 | 0.0 | 2.0 | 0.00 | 0.00 | 0.00 | 76 | 1015.7 |
| 20260508073520 | 62 | 161 | 0.0 | 2.0 | 0.00 | 0.00 | 0.00 | 76 | 1015.5 |
| 20260508073038 | 62 | 0 | 0.0 | 2.0 | 0.00 | 0.00 | 0.00 | 76 | 1015.4 |
| 20260508072522 | 62 | 161 | 0.0 | 3.0 | 0.00 | 0.00 | 0.00 | 77 | 1015.3 |
| 20260508072019 | 62 | 167 | 1.0 | 3.0 | 0.00 | 0.00 | 0.00 | 77 | 1015.2 |
| 20260508071536 | 62 | 128 | 0.0 | 1.0 | 0.00 | 0.00 | 0.00 | 76 | 1015.3 |
| 20260508071021 | 62 | 0 | 0.0 | 1.0 | 0.00 | 0.00 | 0.00 | 77 | 1015.4 |
| 20260508070523 | 62 | 0 | 0.0 | 1.0 | 0.00 | 0.00 | 0.00 | 77 | 1015.4 |
| 20260508070036 | 61 | 0 | 0.0 | 1.0 | 0.00 | 0.00 | 0.00 | 77 | 1015.4 |
| 20260508065521 | 62 | 0 | 0.0 | 1.0 | 0.00 | 0.00 | 0.00 | 76 | 1015.3 |
| 20260508065020 | 62 | 0 | 0.0 | 0.0 | 0.00 | 0.00 | 0.00 | 75 | 1015.6 |
| 20260508064540 | 62 | 0 | 0.0 | 1.0 | 0.00 | 0.00 | 0.00 | 75 | 1015.7 |
| 20260508064024 | 62 | 0 | 0.0 | 2.0 | 0.00 | 0.00 | 0.00 | 75 | 1016.0 |
| 20260508063526 | 62 | 0 | 0.0 | 2.0 | 0.00 | 0.00 | 0.00 | 76 | 1016.1 |
| 20260508063040 | 62 | 238 | 0.0 | 2.0 | 0.00 | 0.00 | 0.00 | 76 | 1016.1 |
| 20260508062521 | 62 | 150 | 0.0 | 3.0 | 0.00 | 0.00 | 0.00 | 76 | 1016.0 |
| 20260508062021 | 62 | 0 | 0.0 | 3.0 | 0.00 | 0.00 | 0.00 | 75 | 1016.0 |
| 20260508061539 | 62 | 0 | 0.0 | 1.0 | 0.00 | 0.00 | 0.00 | 75 | 1016.0 |
| 20260508061019 | 62 | 0 | 0.0 | 1.0 | 0.00 | 0.00 | 0.00 | 75 | 1015.9 |
| 20260508060525 | 62 | 0 | 0.0 | 1.0 | 0.00 | 0.00 | 0.00 | 75 | 1015.8 |
| 20260508060038 | 62 | 170 | 0.0 | 1.0 | 0.00 | 0.00 | 0.00 | 75 | 1015.7 |
| 20260508055521 | 62 | 0 | 0.0 | 1.0 | 0.00 | 0.00 | 0.00 | 76 | 1015.9 |
| 20260508055021 | 62 | 0 | 0.0 | 1.0 | 0.00 | 0.00 | 0.00 | 75 | 1015.9 |
| 20260508054543 | 62 | 175 | 0.0 | 1.0 | 0.00 | 0.00 | 0.00 | 75 | 1015.8 |
| 20260508054020 | 62 | 175 | 0.0 | 1.0 | 0.00 | 0.00 | 0.00 | 74 | 1015.7 |
| 20260508053521 | 62 | 175 | 0.0 | 1.0 | 0.00 | 0.00 | 0.00 | 74 | 1015.9 |
| 20260508053036 | 62 | 0 | 0.0 | 0.0 | 0.00 | 0.00 | 0.00 | 74 | 1015.9 |
| 20260508052521 | 62 | 0 | 0.0 | 0.0 | 0.00 | 0.00 | 0.00 | 74 | 1016.1 |
| 20260508052021 | 63 | 0 | 0.0 | 0.0 | 0.00 | 0.00 | 0.00 | 74 | 1016.1 |
| 20260508051538 | 63 | 0 | 0.0 | 0.0 | 0.00 | 0.00 | 0.00 | 74 | 1016.0 |
| 20260508051021 | 63 | 0 | 0.0 | 0.0 | 0.00 | 0.00 | 0.00 | 73 | 1016.0 |
| 20260508050519 | 63 | 0 | 0.0 | 0.0 | 0.00 | 0.00 | 0.00 | 73 | 1016.0 |
| 20260508050039 | 63 | 0 | 0.0 | 1.0 | 0.00 | 0.00 | 0.00 | 73 | 1015.8 |
| 20260508045520 | 63 | 0 | 0.0 | 1.0 | 0.00 | 0.00 | 0.00 | 72 | 1016.0 |
| 20260508045020 | 63 | 0 | 0.0 | 1.0 | 0.00 | 0.00 | 0.00 | 73 | 1015.9 |
| 20260508044538 | 63 | 0 | 0.0 | 1.0 | 0.00 | 0.00 | 0.00 | 72 | 1015.9 |
| 20260508044021 | 63 | 0 | 0.0 | 1.0 | 0.00 | 0.00 | 0.00 | 72 | 1015.9 |
| 20260508043519 | 63 | 0 | 0.0 | 0.0 | 0.00 | 0.00 | 0.00 | 72 | 1015.8 |
| 20260508043043 | 63 | 0 | 0.0 | 0.0 | 0.00 | 0.00 | 0.00 | 71 | 1015.8 |
| 20260508042521 | 63 | 0 | 0.0 | 0.0 | 0.00 | 0.00 | 0.00 | 73 | 1015.8 |
| 20260508042021 | 64 | 0 | 0.0 | 1.0 | 0.00 | 0.00 | 0.00 | 73 | 1015.9 |
| 20260508041539 | 64 | 0 | 0.0 | 1.0 | 0.00 | 0.00 | 0.00 | 72 | 1016.0 |
| 20260508041022 | 64 | 0 | 0.0 | 0.0 | 0.00 | 0.00 | 0.00 | 71 | 1015.9 |
| 20260508040521 | 63 | 0 | 0.0 | 0.0 | 0.00 | 0.00 | 0.00 | 71 | 1015.8 |
| 20260508040037 | 63 | 0 | 0.0 | 0.0 | 0.00 | 0.00 | 0.00 | 71 | 1015.9 |
| 20260508035521 | 63 | 0 | 0.0 | 0.0 | 0.00 | 0.00 | 0.00 | 71 | 1015.9 |
| 20260508035023 | 63 | 0 | 0.0 | 0.0 | 0.00 | 0.00 | 0.00 | 70 | 1015.9 |
| 20260508034544 | 64 | 0 | 0.0 | 1.0 | 0.00 | 0.00 | 0.00 | 69 | 1015.9 |
| 20260508034020 | 64 | 0 | 0.0 | 1.0 | 0.00 | 0.00 | 0.00 | 69 | 1015.9 |
| 20260508033518 | 64 | 0 | 0.0 | 1.0 | 0.00 | 0.00 | 0.00 | 69 | 1015.8 |
| 20260508033039 | 64 | 0 | 0.0 | 1.0 | 0.00 | 0.00 | 0.00 | 68 | 1015.7 |
| 20260508032521 | 64 | 0 | 0.0 | 3.0 | 0.00 | 0.00 | 0.00 | 68 | 1015.8 |
| 20260508032019 | 64 | 0 | 0.0 | 5.0 | 0.00 | 0.00 | 0.00 | 68 | 1015.7 |
| 20260508031538 | 65 | 0 | 1.0 | 5.0 | 0.00 | 0.00 | 0.00 | 67 | 1015.7 |
| 20260508031020 | 65 | 0 | 0.0 | 2.0 | 0.00 | 0.00 | 0.00 | 66 | 1015.7 |
| 20260508030519 | 65 | 0 | 0.0 | 3.0 | 0.00 | 0.00 | 0.00 | 67 | 1015.7 |
| 20260508030038 | 65 | 0 | 0.0 | 5.0 | 0.00 | 0.00 | 0.00 | 67 | 1015.6 |
| 20260508025519 | 65 | 178 | 0.0 | 5.0 | 0.00 | 0.00 | 0.00 | 67 | 1015.5 |
| 20260508025021 | 65 | 175 | 0.0 | 2.0 | 0.00 | 0.00 | 0.00 | 67 | 1015.6 |
| 20260508024535 | 65 | 158 | 0.0 | 2.0 | 0.00 | 0.00 | 0.00 | 67 | 1015.6 |
| 20260508024018 | 65 | 163 | 0.0 | 3.0 | 0.00 | 0.00 | 0.00 | 67 | 1015.5 |
| 20260508023519 | 65 | 164 | 0.0 | 3.0 | 0.00 | 0.00 | 0.00 | 66 | 1015.5 |
| 20260508023038 | 65 | 161 | 0.0 | 2.0 | 0.00 | 0.00 | 0.00 | 65 | 1015.5 |
| 20260508022521 | 65 | 150 | 0.0 | 2.0 | 0.00 | 0.00 | 0.00 | 65 | 1015.5 |
| 20260508022021 | 66 | 162 | 0.0 | 2.0 | 0.00 | 0.00 | 0.00 | 65 | 1015.4 |
| 20260508021538 | 66 | 0 | 0.0 | 2.0 | 0.00 | 0.00 | 0.00 | 64 | 1015.4 |
| 20260508021024 | 66 | 212 | 0.0 | 2.0 | 0.00 | 0.00 | 0.00 | 64 | 1015.4 |
| 20260508020520 | 66 | 146 | 0.0 | 2.0 | 0.00 | 0.00 | 0.00 | 63 | 1015.3 |
| 20260508020040 | 66 | 161 | 0.0 | 2.0 | 0.00 | 0.00 | 0.00 | 64 | 1015.1 |
| 20260508015520 | 66 | 142 | 0.0 | 2.0 | 0.00 | 0.00 | 0.00 | 63 | 1015.2 |
| 20260508015018 | 67 | 0 | 0.0 | 2.0 | 0.00 | 0.00 | 0.00 | 63 | 1015.2 |
| 20260508014538 | 67 | 0 | 0.0 | 2.0 | 0.00 | 0.00 | 0.00 | 62 | 1015.3 |
| 20260508014019 | 67 | 0 | 0.0 | 3.0 | 0.00 | 0.00 | 0.00 | 62 | 1015.3 |
| 20260508013521 | 67 | 0 | 0.0 | 3.0 | 0.00 | 0.00 | 0.00 | 62 | 1015.3 |
| 20260508013038 | 67 | 164 | 0.0 | 2.0 | 0.00 | 0.00 | 0.00 | 61 | 1015.2 |
| 20260508012518 | 67 | 0 | 0.0 | 2.0 | 0.00 | 0.00 | 0.00 | 61 | 1015.2 |
| 20260508012018 | 68 | 0 | 0.0 | 3.0 | 0.00 | 0.00 | 0.00 | 60 | 1015.1 |
| 20260508011535 | 68 | 0 | 0.0 | 3.0 | 0.00 | 0.00 | 0.00 | 60 | 1015.1 |
| 20260508011018 | 68 | 186 | 1.0 | 5.0 | 0.00 | 0.00 | 0.00 | 60 | 1015.1 |
| 20260508010518 | 68 | 173 | 1.0 | 5.0 | 0.00 | 0.00 | 0.00 | 60 | 1015.2 |
| 20260508010038 | 68 | 0 | 1.0 | 8.0 | 0.00 | 0.00 | 0.00 | 60 | 1015.2 |
| 20260508005519 | 68 | 161 | 1.0 | 8.0 | 0.00 | 0.00 | 0.00 | 59 | 1015.1 |
| 20260508005019 | 69 | 215 | 1.0 | 5.0 | 0.00 | 0.00 | 0.00 | 59 | 1015.1 |
| 20260508004541 | 69 | 137 | 1.0 | 6.0 | 0.00 | 0.00 | 0.00 | 59 | 1015.1 |
| 20260508004020 | 69 | 137 | 1.0 | 5.0 | 0.00 | 0.00 | 0.00 | 59 | 1015.0 |
| 20260508003518 | 69 | 149 | 1.0 | 6.0 | 0.00 | 0.00 | 0.00 | 59 | 1015.1 |
| 20260508003037 | 70 | 265 | 0.0 | 6.0 | 0.00 | 0.00 | 0.00 | 59 | 1015.0 |
| 20260508002518 | 70 | 211 | 0.0 | 5.0 | 0.00 | 0.00 | 0.00 | 59 | 1015.1 |
| 20260508002018 | 70 | 205 | 1.0 | 5.0 | 0.00 | 0.00 | 0.00 | 58 | 1015.2 |
| 20260508001538 | 70 | 166 | 1.0 | 5.0 | 0.00 | 0.00 | 0.00 | 57 | 1015.3 |
| 20260508001018 | 71 | 201 | 1.0 | 6.0 | 0.00 | 0.00 | 0.00 | 57 | 1015.2 |
| 20260508000521 | 71 | 0 | 1.0 | 8.0 | 0.00 | 0.00 | 0.00 | 58 | 1015.1 |
| 20260508000037 | 71 | 0 | 1.0 | 8.0 | 0.00 | 0.00 | 0.00 | 55 | 1015.2 |
| 20260507235525 | 72 | 190 | 2.0 | 6.0 | 0.00 | 0.00 | 0.00 | 50 | 1015.1 |
| 20260507235018 | 72 | 157 | 2.0 | 6.0 | 0.00 | 0.00 | 0.00 | 48 | 1015.1 |
| 20260507234545 | 72 | 135 | 1.0 | 7.0 | 0.00 | 0.00 | 0.00 | 48 | 1015.0 |
| 20260507234019 | 72 | 144 | 2.0 | 7.0 | 0.00 | 0.00 | 0.00 | 49 | 1015.0 |
| 20260507233519 | 72 | 142 | 1.0 | 7.0 | 0.00 | 0.00 | 0.00 | 49 | 1015.0 |
| 20260507233038 | 72 | 145 | 2.0 | 7.0 | 0.00 | 0.00 | 0.00 | 48 | 1015.0 |
| 20260507232522 | 72 | 112 | 2.0 | 6.0 | 0.00 | 0.00 | 0.00 | 49 | 1015.0 |
| 20260507232018 | 72 | 151 | 1.0 | 8.0 | 0.00 | 0.00 | 0.00 | 50 | 1015.0 |
| 20260507231546 | 72 | 155 | 2.0 | 8.0 | 0.00 | 0.00 | 0.00 | 48 | 1015.1 |
| 20260507231018 | 72 | 91 | 2.0 | 8.0 | 0.00 | 0.00 | 0.00 | 48 | 1015.2 |
| 20260507230517 | 72 | 142 | 3.0 | 8.0 | 0.00 | 0.00 | 0.00 | 47 | 1015.1 |
| 20260507230037 | 73 | 123 | 0.0 | 6.0 | 0.00 | 0.00 | 0.00 | 49 | 1015.1 |
| 20260507225518 | 72 | 152 | 1.0 | 6.0 | 0.00 | 0.00 | 0.00 | 49 | 1015.1 |
| 20260507225018 | 72 | 121 | 2.0 | 6.0 | 0.00 | 0.00 | 0.00 | 48 | 1015.1 |
| 20260507224541 | 73 | 132 | 0.0 | 6.0 | 0.00 | 0.00 | 0.00 | 49 | 1015.2 |
| 20260507224021 | 73 | 142 | 1.0 | 8.0 | 0.00 | 0.00 | 0.00 | 47 | 1015.2 |
| 20260507223518 | 73 | 130 | 2.0 | 8.0 | 0.00 | 0.00 | 0.00 | 48 | 1015.3 |
| 20260507223032 | 73 | 127 | 2.0 | 6.0 | 0.00 | 0.00 | 0.00 | 47 | 1015.2 |
| 20260507222518 | 74 | 153 | 0.0 | 4.0 | 0.00 | 0.00 | 0.00 | 48 | 1015.3 |
| 20260507222018 | 75 | 142 | 0.0 | 5.0 | 0.00 | 0.00 | 0.00 | 47 | 1015.3 |
| 20260507221538 | 74 | 167 | 2.0 | 5.0 | 0.00 | 0.00 | 0.00 | 47 | 1015.2 |
| 20260507221019 | 74 | 134 | 1.0 | 4.0 | 0.00 | 0.00 | 0.00 | 47 | 1015.3 |
| 20260507220517 | 74 | 140 | 1.0 | 4.0 | 0.00 | 0.00 | 0.00 | 43 | 1015.3 |
| 20260507220038 | 74 | 103 | 0.0 | 4.0 | 0.00 | 0.00 | 0.00 | 44 | 1015.3 |
| 20260507215522 | 74 | 0 | 0.0 | 2.0 | 0.00 | 0.00 | 0.00 | 41 | 1015.4 |
| 20260507215018 | 74 | 0 | 0.0 | 2.0 | 0.00 | 0.00 | 0.00 | 43 | 1015.4 |
| 20260507214538 | 74 | 0 | 0.0 | 2.0 | 0.00 | 0.00 | 0.00 | 43 | 1015.4 |
| 20260507214018 | 75 | 0 | 0.0 | 4.0 | 0.00 | 0.00 | 0.00 | 42 | 1015.4 |
| 20260507213521 | 74 | 17 | 1.0 | 4.0 | 0.00 | 0.00 | 0.00 | 41 | 1015.5 |
| 20260507213045 | 74 | 14 | 1.0 | 5.0 | 0.00 | 0.00 | 0.00 | 40 | 1015.5 |
| 20260507212519 | 74 | 0 | 1.0 | 5.0 | 0.00 | 0.00 | 0.00 | 40 | 1015.6 |
| 20260507212019 | 74 | 352 | 1.0 | 4.0 | 0.00 | 0.00 | 0.00 | 41 | 1015.6 |
| 20260507211539 | 74 | 352 | 2.0 | 5.0 | 0.00 | 0.00 | 0.00 | 41 | 1015.7 |
| 20260507211018 | 75 | 153 | 2.0 | 7.0 | 0.00 | 0.00 | 0.00 | 41 | 1015.7 |
| 20260507210524 | 75 | 65 | 2.0 | 7.0 | 0.00 | 0.00 | 0.00 | 41 | 1015.8 |
| 20260507210035 | 75 | 103 | 1.0 | 9.0 | 0.00 | 0.00 | 0.00 | 42 | 1015.7 |
| 20260507205521 | 75 | 342 | 3.0 | 9.0 | 0.00 | 0.00 | 0.00 | 42 | 1015.7 |
| 20260507205018 | 75 | 165 | 3.0 | 9.0 | 0.00 | 0.00 | 0.00 | 42 | 1015.7 |
| 20260507204543 | 74 | 106 | 1.0 | 4.0 | 0.00 | 0.00 | 0.00 | 42 | 1015.8 |
| 20260507204018 | 75 | 126 | 1.0 | 4.0 | 0.00 | 0.00 | 0.00 | 41 | 1015.8 |
| 20260507203525 | 76 | 64 | 0.0 | 10.0 | 0.00 | 0.00 | 0.00 | 41 | 1015.9 |
| 20260507203043 | 75 | 49 | 1.0 | 11.0 | 0.00 | 0.00 | 0.00 | 40 | 1016.1 |
| 20260507202518 | 76 | 107 | 4.0 | 11.0 | 0.00 | 0.00 | 0.00 | 41 | 1016.1 |
| 20260507202018 | 75 | 57 | 1.0 | 5.0 | 0.00 | 0.00 | 0.00 | 42 | 1016.1 |
| 20260507201539 | 74 | 302 | 2.0 | 6.0 | 0.00 | 0.00 | 0.00 | 41 | 1016.2 |
| 20260507201024 | 74 | 39 | 3.0 | 7.0 | 0.00 | 0.00 | 0.00 | 41 | 1016.3 |
| 20260507200522 | 73 | 325 | 2.0 | 8.0 | 0.00 | 0.00 | 0.00 | 43 | 1016.3 |
| 20260507200038 | 74 | 36 | 3.0 | 8.0 | 0.00 | 0.00 | 0.00 | 42 | 1016.2 |
| 20260507195522 | 74 | 352 | 3.0 | 7.0 | 0.00 | 0.00 | 0.00 | 41 | 1016.4 |
| 20260507195022 | 74 | 352 | 2.0 | 8.0 | 0.00 | 0.00 | 0.00 | 43 | 1016.4 |
| 20260507194541 | 75 | 309 | 2.0 | 8.0 | 0.00 | 0.00 | 0.00 | 42 | 1016.5 |
| 20260507194023 | 74 | 93 | 2.0 | 6.0 | 0.00 | 0.00 | 0.00 | 41 | 1016.5 |
| 20260507193525 | 74 | 97 | 1.0 | 13.0 | 0.00 | 0.00 | 0.00 | 42 | 1016.7 |
| 20260507193049 | 73 | 0 | 2.0 | 13.0 | 0.00 | 0.00 | 0.00 | 42 | 1016.7 |
| 20260507192521 | 72 | 65 | 3.0 | 10.0 | 0.00 | 0.00 | 0.00 | 43 | 1016.7 |
| 20260507192022 | 73 | 23 | 4.0 | 10.0 | 0.00 | 0.00 | 0.00 | 43 | 1017.0 |
| 20260507191539 | 73 | 227 | 4.0 | 10.0 | 0.00 | 0.00 | 0.00 | 41 | 1017.1 |
| 20260507191022 | 73 | 68 | 5.0 | 10.0 | 0.00 | 0.00 | 0.00 | 44 | 1017.1 |
| 20260507190523 | 72 | 32 | 3.0 | 9.0 | 0.00 | 0.00 | 0.00 | 42 | 1017.1 |
| 20260507190038 | 73 | 54 | 2.0 | 9.0 | 0.00 | 0.00 | 0.00 | 44 | 1017.2 |
| 20260507185522 | 72 | 352 | 3.0 | 9.0 | 0.00 | 0.00 | 0.00 | 43 | 1017.2 |
| 20260507185022 | 72 | 184 | 2.0 | 10.0 | 0.00 | 0.00 | 0.00 | 43 | 1017.3 |
| 20260507184537 | 72 | 360 | 5.0 | 10.0 | 0.00 | 0.00 | 0.00 | 44 | 1017.3 |
| 20260507184023 | 72 | 360 | 2.0 | 14.0 | 0.00 | 0.00 | 0.00 | 43 | 1017.4 |
| 20260507183522 | 72 | 360 | 4.0 | 14.0 | 0.00 | 0.00 | 0.00 | 45 | 1017.5 |
| 20260507183044 | 72 | 5 | 6.0 | 13.0 | 0.00 | 0.00 | 0.00 | 43 | 1017.6 |
| 20260507182522 | 72 | 108 | 4.0 | 13.0 | 0.00 | 0.00 | 0.00 | 44 | 1017.7 |
| 20260507182025 | 72 | 107 | 2.0 | 8.0 | 0.00 | 0.00 | 0.00 | 45 | 1017.8 |
| 20260507181540 | 71 | 41 | 1.0 | 12.0 | 0.00 | 0.00 | 0.00 | 45 | 1017.8 |
| 20260507181022 | 71 | 34 | 5.0 | 12.0 | 0.00 | 0.00 | 0.00 | 48 | 1017.9 |
| 20260507180521 | 71 | 19 | 4.0 | 10.0 | 0.00 | 0.00 | 0.00 | 46 | 1018.1 |
| 20260507180039 | 70 | 147 | 3.0 | 10.0 | 0.00 | 0.00 | 0.00 | 47 | 1018.0 |
| 20260507175521 | 70 | 336 | 4.0 | 10.0 | 0.00 | 0.00 | 0.00 | 48 | 1018.1 |
| 20260507175023 | 70 | 96 | 3.0 | 10.0 | 0.00 | 0.00 | 0.00 | 49 | 1018.1 |
| 20260507174539 | 70 | 92 | 3.0 | 11.0 | 0.00 | 0.00 | 0.00 | 50 | 1018.2 |
| 20260507174022 | 69 | 33 | 5.0 | 11.0 | 0.00 | 0.00 | 0.00 | 50 | 1018.5 |
| 20260507173523 | 68 | 96 | 3.0 | 11.0 | 0.00 | 0.00 | 0.00 | 51 | 1018.6 |
| 20260507173044 | 68 | 348 | 3.0 | 11.0 | 0.00 | 0.00 | 0.00 | 49 | 1018.8 |
| 20260507172522 | 69 | 333 | 2.0 | 8.0 | 0.00 | 0.00 | 0.00 | 49 | 1018.8 |
| 20260507172022 | 69 | 339 | 3.0 | 9.0 | 0.00 | 0.00 | 0.00 | 49 | 1019.1 |
| 20260507171550 | 69 | 106 | 2.0 | 9.0 | 0.00 | 0.00 | 0.00 | 49 | 1019.2 |
| 20260507171025 | 68 | 28 | 1.0 | 8.0 | 0.00 | 0.00 | 0.00 | 50 | 1019.4 |
| 20260507170522 | 68 | 62 | 3.0 | 8.0 | 0.00 | 0.00 | 0.00 | 50 | 1019.6 |
| 20260507170038 | 67 | 94 | 3.0 | 7.0 | 0.00 | 0.00 | 0.00 | 51 | 1019.6 |
| 20260507165523 | 67 | 360 | 1.0 | 9.0 | 0.00 | 0.00 | 0.00 | 51 | 1019.7 |
| 20260507165022 | 67 | 32 | 2.0 | 9.0 | 0.00 | 0.00 | 0.00 | 53 | 1019.7 |
| 20260507164539 | 67 | 62 | 1.0 | 7.0 | 0.00 | 0.00 | 0.00 | 51 | 1019.7 |
| 20260507164022 | 67 | 95 | 2.0 | 9.0 | 0.00 | 0.00 | 0.00 | 54 | 1019.8 |
| 20260507163524 | 66 | 360 | 3.0 | 9.0 | 0.00 | 0.00 | 0.00 | 53 | 1019.9 |
| 20260507163038 | 67 | 84 | 3.0 | 8.0 | 0.00 | 0.00 | 0.00 | 55 | 1019.8 |
| 20260507162523 | 67 | 34 | 2.0 | 8.0 | 0.00 | 0.00 | 0.00 | 54 | 1019.8 |
| 20260507162022 | 66 | 20 | 3.0 | 8.0 | 0.00 | 0.00 | 0.00 | 56 | 1019.7 |
| 20260507161539 | 66 | 47 | 1.0 | 7.0 | 0.00 | 0.00 | 0.00 | 55 | 1019.8 |
| 20260507161022 | 66 | 106 | 2.0 | 6.0 | 0.00 | 0.00 | 0.00 | 56 | 1019.9 |
| 20260507160523 | 65 | 47 | 2.0 | 9.0 | 0.00 | 0.00 | 0.00 | 56 | 1019.9 |
| 20260507160041 | 65 | 318 | 4.0 | 10.0 | 0.00 | 0.00 | 0.00 | 56 | 1019.8 |
| 20260507155522 | 65 | 337 | 4.0 | 10.0 | 0.00 | 0.15 | 0.00 | 56 | 1019.9 |
| 20260507155026 | 65 | 22 | 2.0 | 8.0 | 0.00 | 0.15 | 0.00 | 57 | 1019.8 |
| 20260507154538 | 64 | 89 | 3.0 | 8.0 | 0.00 | 0.15 | 0.00 | 58 | 1019.8 |
| 20260507154021 | 65 | 59 | 3.0 | 7.0 | 0.00 | 0.15 | 0.00 | 56 | 1019.9 |
| 20260507153525 | 65 | 15 | 3.0 | 8.0 | 0.00 | 0.15 | 0.00 | 59 | 1020.0 |
| 20260507153036 | 64 | 350 | 3.0 | 8.0 | 0.00 | 0.15 | 0.00 | 58 | 1020.0 |
| 20260507152522 | 63 | 60 | 1.0 | 7.0 | 0.00 | 0.15 | 0.00 | 62 | 1020.0 |
| 20260507152022 | 63 | 28 | 2.0 | 7.0 | 0.00 | 0.15 | 0.00 | 64 | 1020.2 |
| 20260507151537 | 62 | 46 | 2.0 | 6.0 | 0.00 | 0.15 | 0.00 | 64 | 1020.2 |
| 20260507151021 | 62 | 36 | 3.0 | 6.0 | 0.00 | 0.15 | 0.00 | 63 | 1020.3 |
| 20260507150526 | 63 | 335 | 2.0 | 6.0 | 0.00 | 0.15 | 0.00 | 62 | 1020.4 |
| 20260507150039 | 62 | 50 | 2.0 | 6.0 | 0.00 | 0.15 | 0.00 | 64 | 1020.4 |
| 20260507145522 | 62 | 63 | 3.0 | 6.0 | 0.00 | 0.15 | 0.00 | 65 | 1020.3 |
| 20260507145021 | 62 | 40 | 3.0 | 9.0 | 0.00 | 0.15 | 0.00 | 64 | 1020.3 |
| 20260507144600 | 62 | 46 | 4.0 | 9.0 | 0.00 | 0.15 | 0.00 | 64 | 1020.4 |
| 20260507144023 | 62 | 344 | 3.0 | 7.0 | 0.00 | 0.15 | 0.00 | 66 | 1020.3 |
| 20260507143523 | 61 | 18 | 3.0 | 7.0 | 0.00 | 0.15 | 0.00 | 66 | 1020.5 |
| 20260507143038 | 61 | 94 | 2.0 | 6.0 | 0.00 | 0.15 | 0.00 | 67 | 1020.5 |
| 20260507142522 | 61 | 14 | 3.0 | 8.0 | 0.00 | 0.15 | 0.00 | 70 | 1020.5 |
| 20260507142026 | 60 | 49 | 3.0 | 8.0 | 0.00 | 0.15 | 0.00 | 69 | 1020.4 |
| 20260507141540 | 60 | 70 | 2.0 | 7.0 | 0.00 | 0.15 | 0.00 | 70 | 1020.6 |
| 20260507141022 | 60 | 44 | 2.0 | 5.0 | 0.00 | 0.15 | 0.00 | 73 | 1020.5 |
| 20260507140522 | 59 | 82 | 1.0 | 5.0 | 0.00 | 0.15 | 0.00 | 71 | 1020.7 |
| 20260507140036 | 59 | 14 | 2.0 | 5.0 | 0.00 | 0.15 | 0.00 | 74 | 1020.7 |